| time (UTC) | temp C | wind direction | speed KPH | gust KPH | rain 1hr cm | rain 24hr cm | rain mn cm | humidity % | barometer mb |
| 20260906231642 | 16 | 345 | 1.6 | 4.8 | 0.00 | 0.00 | 0.00 | 78 | 1017.7 |
| 20260906231035 | 16 | 26 | 0.0 | 4.8 | 0.00 | 0.00 | 0.00 | 77 | 1017.7 |
| 20260906230538 | 16 | 74 | 1.6 | 4.8 | 0.00 | 0.00 | 0.00 | 79 | 1017.7 |
| 20260906230112 | 16 | 56 | 1.6 | 4.8 | 0.00 | 0.00 | 0.00 | 79 | 1017.8 |
| 20260906225539 | 16 | 54 | 1.6 | 4.8 | 0.00 | 0.00 | 0.00 | 79 | 1017.7 |
| 20260906225024 | 16 | 40 | 1.6 | 4.8 | 0.00 | 0.00 | 0.00 | 78 | 1017.7 |
| 20260906224624 | 16 | 53 | 1.6 | 4.8 | 0.00 | 0.00 | 0.00 | 79 | 1017.6 |
| 20260906224018 | 16 | 61 | 1.6 | 4.8 | 0.00 | 0.00 | 0.00 | 79 | 1017.6 |
| 20260906223541 | 16 | 37 | 3.2 | 4.8 | 0.00 | 0.00 | 0.00 | 79 | 1017.6 |
| 20260906223128 | 16 | 38 | 3.2 | 4.8 | 0.00 | 0.00 | 0.00 | 79 | 1017.6 |
| 20260906222518 | 16 | 46 | 1.6 | 4.8 | 0.00 | 0.00 | 0.00 | 79 | 1017.5 |
| 20260906222041 | 16 | 27 | 1.6 | 4.8 | 0.00 | 0.00 | 0.00 | 79 | 1017.5 |
| 20260906221623 | 16 | 36 | 1.6 | 8.0 | 0.00 | 0.00 | 0.00 | 79 | 1017.5 |
| 20260906221036 | 16 | 76 | 1.6 | 8.0 | 0.00 | 0.00 | 0.00 | 79 | 1017.7 |
| 20260906220524 | 16 | 51 | 1.6 | 4.8 | 0.00 | 0.00 | 0.00 | 79 | 1017.7 |
| 20260906220054 | 16 | 30 | 1.6 | 6.4 | 0.00 | 0.00 | 0.00 | 78 | 1017.6 |
| 20260906215533 | 16 | 88 | 3.2 | 6.4 | 0.00 | 0.00 | 0.00 | 81 | 1017.4 |
| 20260906215031 | 16 | 74 | 1.6 | 4.8 | 0.00 | 0.00 | 0.00 | 79 | 1017.4 |
| 20260906214605 | 16 | 21 | 1.6 | 4.8 | 0.00 | 0.00 | 0.00 | 80 | 1017.4 |
| 20260906214025 | 16 | 27 | 1.6 | 4.8 | 0.00 | 0.00 | 0.00 | 80 | 1017.5 |
| 20260906213524 | 15 | 32 | 1.6 | 4.8 | 0.00 | 0.00 | 0.00 | 80 | 1017.6 |
| 20260906213107 | 16 | 29 | 1.6 | 4.8 | 0.00 | 0.00 | 0.00 | 80 | 1017.6 |
| 20260906212523 | 15 | 29 | 1.6 | 4.8 | 0.00 | 0.00 | 0.00 | 81 | 1017.6 |
| 20260906212027 | 15 | 40 | 1.6 | 4.8 | 0.00 | 0.00 | 0.00 | 80 | 1017.6 |
| 20260906211623 | 15 | 55 | 1.6 | 4.8 | 0.00 | 0.00 | 0.00 | 82 | 1017.4 |
| 20260906211024 | 15 | 126 | 1.6 | 11.3 | 0.00 | 0.00 | 0.00 | 83 | 1017.5 |
| 20260906210525 | 15 | 16 | 1.6 | 24.1 | 0.00 | 0.00 | 0.00 | 82 | 1017.5 |
| 20260906210124 | 15 | 280 | 9.7 | 24.1 | 0.00 | 0.00 | 0.00 | 83 | 1017.4 |
| 20260906205529 | 15 | 259 | 3.2 | 16.1 | 0.00 | 0.00 | 0.00 | 83 | 1017.4 |
| 20260906205020 | 15 | 329 | 6.4 | 16.1 | 0.00 | 0.00 | 0.00 | 83 | 1017.4 |
| 20260906204624 | 15 | 260 | 6.4 | 14.5 | 0.00 | 0.00 | 0.00 | 84 | 1017.4 |
| 20260906204020 | 14 | 360 | 4.8 | 12.9 | 0.00 | 0.00 | 0.00 | 85 | 1017.3 |
| 20260906203527 | 14 | 346 | 4.8 | 12.9 | 0.00 | 0.00 | 0.00 | 85 | 1017.5 |
| 20260906203123 | 13 | 277 | 3.2 | 9.7 | 0.00 | 0.00 | 0.00 | 85 | 1017.7 |
| 20260906202550 | 14 | 329 | 3.2 | 9.7 | 0.00 | 0.00 | 0.00 | 85 | 1017.5 |
| 20260906202021 | 14 | 339 | 3.2 | 6.4 | 0.00 | 0.00 | 0.00 | 86 | 1017.5 |
| 20260906201631 | 13 | 352 | 3.2 | 9.7 | 0.00 | 0.00 | 0.00 | 86 | 1017.7 |
| 20260906201023 | 13 | 304 | 4.8 | 9.7 | 0.00 | 0.00 | 0.00 | 86 | 1017.7 |
| 20260906200523 | 13 | 5 | 1.6 | 8.0 | 0.00 | 0.00 | 0.00 | 87 | 1017.7 |
| 20260906200126 | 13 | 335 | 3.2 | 11.3 | 0.00 | 0.00 | 0.00 | 87 | 1017.8 |
| 20260906195535 | 13 | 320 | 4.8 | 11.3 | 0.00 | 0.00 | 0.00 | 87 | 1017.8 |
| 20260906195044 | 13 | 324 | 3.2 | 9.7 | 0.00 | 0.00 | 0.00 | 86 | 1017.9 |
| 20260906194626 | 13 | 331 | 4.8 | 9.7 | 0.00 | 0.00 | 0.00 | 86 | 1017.9 |
| 20260906194035 | 13 | 268 | 1.6 | 6.4 | 0.00 | 0.00 | 0.00 | 87 | 1017.9 |
| 20260906193523 | 13 | 295 | 1.6 | 6.4 | 0.00 | 0.00 | 0.00 | 87 | 1017.9 |
| 20260906193122 | 13 | 311 | 1.6 | 9.7 | 0.00 | 0.00 | 0.00 | 87 | 1017.9 |
| 20260906192520 | 13 | 346 | 1.6 | 9.7 | 0.00 | 0.00 | 0.00 | 86 | 1018.0 |
| 20260906192046 | 13 | 257 | 1.6 | 11.3 | 0.00 | 0.00 | 0.00 | 86 | 1018.0 |
| 20260906191630 | 13 | 309 | 3.2 | 11.3 | 0.00 | 0.00 | 0.00 | 86 | 1018.1 |
| 20260906191016 | 13 | 276 | 3.2 | 9.7 | 0.00 | 0.00 | 0.00 | 86 | 1018.1 |
| 20260906190534 | 13 | 249 | 0.0 | 4.8 | 0.00 | 0.00 | 0.00 | 87 | 1018.1 |
| 20260906190135 | 13 | 17 | 1.6 | 4.8 | 0.00 | 0.00 | 0.00 | 87 | 1018.1 |
| 20260906185536 | 13 | 31 | 1.6 | 4.8 | 0.00 | 0.00 | 0.00 | 88 | 1018.1 |
| 20260906185035 | 13 | 46 | 1.6 | 4.8 | 0.00 | 0.00 | 0.00 | 87 | 1018.1 |
| 20260906184600 | 13 | 20 | 1.6 | 4.8 | 0.00 | 0.00 | 0.00 | 87 | 1018.1 |
| 20260906184024 | 13 | 32 | 1.6 | 4.8 | 0.00 | 0.00 | 0.00 | 86 | 1018.1 |
| 20260906183529 | 13 | 13 | 1.6 | 4.8 | 0.00 | 0.00 | 0.00 | 87 | 1018.2 |
| 20260906183128 | 13 | 5 | 1.6 | 6.4 | 0.00 | 0.00 | 0.00 | 87 | 1018.1 |
| 20260906182526 | 13 | 15 | 3.2 | 6.4 | 0.00 | 0.00 | 0.00 | 87 | 1018.1 |
| 20260906182051 | 13 | 28 | 0.0 | 6.4 | 0.00 | 0.00 | 0.00 | 89 | 1018.1 |
| 20260906181637 | 13 | 59 | 1.6 | 6.4 | 0.00 | 0.00 | 0.00 | 89 | 1018.1 |
| 20260906181039 | 13 | 49 | 1.6 | 6.4 | 0.00 | 0.00 | 0.00 | 89 | 1018.1 |
| 20260906180537 | 13 | 28 | 1.6 | 6.4 | 0.00 | 0.00 | 0.00 | 89 | 1018.1 |
| 20260906180117 | 13 | 145 | 3.2 | 8.0 | 0.00 | 0.00 | 0.00 | 88 | 1018.1 |
| 20260906175545 | 13 | 31 | 3.2 | 8.0 | 0.00 | 0.00 | 0.00 | 88 | 1018.2 |
| 20260906175030 | 13 | 39 | 3.2 | 6.4 | 0.00 | 0.00 | 0.00 | 89 | 1018.2 |
| 20260906174624 | 13 | 36 | 3.2 | 4.8 | 0.00 | 0.00 | 0.00 | 89 | 1018.2 |
| 20260906174044 | 13 | 34 | 1.6 | 6.4 | 0.00 | 0.00 | 0.00 | 89 | 1018.3 |
| 20260906173524 | 13 | 9 | 1.6 | 6.4 | 0.00 | 0.00 | 0.00 | 89 | 1018.4 |
| 20260906173124 | 12 | 56 | 1.6 | 6.4 | 0.00 | 0.00 | 0.00 | 90 | 1018.4 |
| 20260906172526 | 12 | 49 | 1.6 | 4.8 | 0.00 | 0.00 | 0.00 | 89 | 1018.4 |
| 20260906172047 | 12 | 37 | 0.0 | 3.2 | 0.00 | 0.00 | 0.00 | 90 | 1018.4 |
| 20260906171610 | 12 | 37 | 1.6 | 4.8 | 0.00 | 0.00 | 0.00 | 90 | 1018.3 |
| 20260906171031 | 12 | 37 | 1.6 | 4.8 | 0.00 | 0.00 | 0.00 | 90 | 1018.3 |
| 20260906170546 | 12 | 40 | 1.6 | 3.2 | 0.00 | 0.00 | 0.00 | 91 | 1018.3 |
| 20260906170200 | 12 | 11 | 1.6 | 3.2 | 0.00 | 0.00 | 0.00 | 90 | 1018.3 |
| 20260906165518 | 12 | 11 | 1.6 | 3.2 | 0.00 | 0.00 | 0.00 | 91 | 1018.3 |
| 20260906165034 | 12 | 36 | 1.6 | 3.2 | 0.00 | 0.00 | 0.00 | 91 | 1018.3 |
| 20260906164624 | 12 | 35 | 1.6 | 4.8 | 0.00 | 0.00 | 0.00 | 91 | 1018.3 |
| 20260906164023 | 12 | 28 | 1.6 | 4.8 | 0.00 | 0.00 | 0.00 | 92 | 1018.3 |
| 20260906163519 | 12 | 47 | 1.6 | 4.8 | 0.00 | 0.00 | 0.00 | 92 | 1018.3 |
| 20260906163131 | 12 | 34 | 1.6 | 3.2 | 0.00 | 0.00 | 0.00 | 92 | 1018.4 |
| 20260906162519 | 12 | 34 | 1.6 | 3.2 | 0.00 | 0.00 | 0.00 | 92 | 1018.3 |
| 20260906162035 | 12 | 144 | 0.0 | 3.2 | 0.00 | 0.00 | 0.00 | 92 | 1018.3 |
| 20260906161606 | 12 | 144 | 1.6 | 4.8 | 0.00 | 0.00 | 0.00 | 93 | 1018.3 |
| 20260906161024 | 11 | 105 | 1.6 | 4.8 | 0.00 | 0.00 | 0.00 | 93 | 1018.2 |
| 20260906160530 | 11 | 26 | 0.0 | 6.4 | 0.00 | 0.00 | 0.00 | 94 | 1018.3 |
| 20260906160158 | 11 | 22 | 1.6 | 6.4 | 0.00 | 0.00 | 0.00 | 94 | 1018.3 |
| 20260906155538 | 11 | 126 | 1.6 | 9.7 | 0.00 | 0.00 | 0.00 | 93 | 1018.3 |
| 20260906155026 | 11 | 153 | 6.4 | 12.9 | 0.00 | 0.00 | 0.00 | 93 | 1018.2 |
| 20260906154633 | 11 | 117 | 4.8 | 12.9 | 0.00 | 0.00 | 0.00 | 93 | 1018.2 |
| 20260906154034 | 11 | 128 | 3.2 | 11.3 | 0.00 | 0.00 | 0.00 | 93 | 1018.2 |
| 20260906153525 | 11 | 161 | 3.2 | 11.3 | 0.00 | 0.00 | 0.00 | 93 | 1018.1 |
| 20260906153111 | 11 | 184 | 4.8 | 11.3 | 0.00 | 0.00 | 0.00 | 93 | 1018.1 |
| 20260906152532 | 11 | 207 | 3.2 | 9.7 | 0.00 | 0.00 | 0.00 | 93 | 1018.0 |
| 20260906152022 | 11 | 109 | 1.6 | 4.8 | 0.00 | 0.00 | 0.00 | 93 | 1018.0 |
| 20260906151625 | 11 | 128 | 1.6 | 4.8 | 0.00 | 0.00 | 0.00 | 93 | 1018.0 |
| 20260906151037 | 11 | 150 | 3.2 | 12.9 | 0.00 | 0.00 | 0.00 | 93 | 1018.0 |
| 20260906150546 | 11 | 86 | 6.4 | 12.9 | 0.00 | 0.00 | 0.00 | 94 | 1018.0 |
| 20260906150138 | 11 | 143 | 3.2 | 9.7 | 0.00 | 0.00 | 0.00 | 94 | 1018.0 |
| 20260906145545 | 11 | 131 | 4.8 | 12.9 | 0.00 | 0.00 | 0.00 | 94 | 1018.0 |
| 20260906145042 | 11 | 119 | 6.4 | 12.9 | 0.00 | 0.00 | 0.00 | 94 | 1018.0 |
| 20260906144626 | 11 | 118 | 1.6 | 9.7 | 0.00 | 0.00 | 0.00 | 94 | 1018.0 |
| 20260906144032 | 11 | 159 | 4.8 | 12.9 | 0.00 | 0.00 | 0.00 | 94 | 1018.0 |
| 20260906143537 | 11 | 120 | 4.8 | 12.9 | 0.00 | 0.00 | 0.00 | 94 | 1018.1 |
| 20260906143117 | 11 | 111 | 4.8 | 14.5 | 0.00 | 0.00 | 0.00 | 94 | 1018.1 |
| 20260906142524 | 11 | 130 | 3.2 | 11.3 | 0.00 | 0.00 | 0.00 | 94 | 1018.0 |
| 20260906142021 | 11 | 55 | 3.2 | 11.3 | 0.00 | 0.00 | 0.00 | 94 | 1018.0 |
| 20260906141634 | 11 | 126 | 4.8 | 16.1 | 0.00 | 0.00 | 0.00 | 94 | 1017.9 |
| 20260906141024 | 11 | 143 | 6.4 | 19.3 | 0.00 | 0.00 | 0.00 | 94 | 1017.9 |
| 20260906140523 | 11 | 157 | 4.8 | 19.3 | 0.00 | 0.00 | 0.00 | 95 | 1017.9 |
| 20260906140159 | 11 | 138 | 4.8 | 12.9 | 0.00 | 0.00 | 0.00 | 95 | 1017.8 |
| 20260906135540 | 11 | 94 | 6.4 | 14.5 | 0.00 | 0.00 | 0.00 | 95 | 1017.8 |
| 20260906135029 | 11 | 123 | 6.4 | 16.1 | 0.00 | 0.00 | 0.00 | 95 | 1017.9 |
| 20260906134646 | 11 | 153 | 6.4 | 16.1 | 0.00 | 0.00 | 0.00 | 95 | 1017.9 |
| 20260906134036 | 11 | 118 | 8.0 | 16.1 | 0.00 | 0.00 | 0.00 | 95 | 1017.7 |
| 20260906133521 | 11 | 88 | 6.4 | 16.1 | 0.00 | 0.00 | 0.00 | 95 | 1017.8 |
| 20260906133147 | 11 | 80 | 4.8 | 20.9 | 0.00 | 0.00 | 0.00 | 95 | 1017.8 |
| 20260906132519 | 11 | 136 | 3.2 | 20.9 | 0.00 | 0.00 | 0.00 | 96 | 1017.8 |
| 20260906132029 | 11 | 124 | 3.2 | 17.7 | 0.00 | 0.00 | 0.00 | 96 | 1017.8 |
| 20260906131626 | 11 | 105 | 9.7 | 17.7 | 0.00 | 0.00 | 0.00 | 96 | 1017.8 |
| 20260906131040 | 11 | 119 | 9.7 | 17.7 | 0.00 | 0.00 | 0.00 | 95 | 1017.9 |
| 20260906130524 | 11 | 54 | 6.4 | 16.1 | 0.00 | 0.00 | 0.00 | 96 | 1017.8 |
| 20260906130128 | 11 | 117 | 3.2 | 12.9 | 0.00 | 0.00 | 0.00 | 95 | 1017.9 |
| 20260906125536 | 11 | 78 | 4.8 | 16.1 | 0.00 | 0.00 | 0.00 | 96 | 1017.8 |
| 20260906125025 | 11 | 92 | 4.8 | 17.7 | 0.00 | 0.00 | 0.00 | 96 | 1017.7 |
| 20260906124632 | 11 | 155 | 6.4 | 17.7 | 0.00 | 0.00 | 0.00 | 96 | 1017.7 |
| 20260906124044 | 11 | 96 | 3.2 | 20.9 | 0.00 | 0.00 | 0.00 | 96 | 1017.7 |
| 20260906123540 | 11 | 148 | 6.4 | 20.9 | 0.00 | 0.00 | 0.00 | 96 | 1017.8 |
| 20260906123128 | 11 | 90 | 6.4 | 16.1 | 0.00 | 0.00 | 0.00 | 96 | 1017.8 |
| 20260906122532 | 11 | 128 | 9.7 | 19.3 | 0.00 | 0.00 | 0.00 | 96 | 1017.8 |
| 20260906122024 | 11 | 149 | 9.7 | 20.9 | 0.00 | 0.00 | 0.00 | 96 | 1017.8 |
| 20260906121659 | 11 | 27 | 8.0 | 22.5 | 0.00 | 0.00 | 0.00 | 96 | 1017.7 |
| 20260906121035 | 11 | 141 | 12.9 | 22.5 | 0.00 | 0.00 | 0.00 | 96 | 1017.6 |
| 20260906120543 | 11 | 32 | 6.4 | 20.9 | 0.00 | 0.00 | 0.00 | 96 | 1017.4 |
| 20260906120129 | 11 | 126 | 4.8 | 19.3 | 0.00 | 0.00 | 0.00 | 96 | 1017.5 |
| 20260906115525 | 11 | 124 | 8.0 | 19.3 | 0.00 | 0.00 | 0.00 | 96 | 1017.5 |
| 20260906115024 | 11 | 114 | 8.0 | 20.9 | 0.00 | 0.00 | 0.00 | 96 | 1017.4 |
| 20260906114656 | 11 | 97 | 8.0 | 24.1 | 0.00 | 0.00 | 0.00 | 96 | 1017.4 |
| 20260906114056 | 11 | 162 | 9.7 | 24.1 | 0.00 | 0.00 | 0.00 | 96 | 1017.3 |
| 20260906113527 | 11 | 146 | 4.8 | 17.7 | 0.00 | 0.00 | 0.00 | 96 | 1017.3 |
| 20260906113125 | 11 | 147 | 6.4 | 19.3 | 0.00 | 0.00 | 0.00 | 96 | 1017.3 |
| 20260906112548 | 11 | 83 | 9.7 | 19.3 | 0.00 | 0.00 | 0.00 | 96 | 1017.3 |
| 20260906112046 | 11 | 122 | 8.0 | 17.7 | 0.00 | 0.00 | 0.00 | 96 | 1017.3 |
| 20260906111620 | 11 | 70 | 9.7 | 17.7 | 0.00 | 0.00 | 0.00 | 96 | 1017.3 |
| 20260906111019 | 11 | 125 | 4.8 | 16.1 | 0.00 | 0.00 | 0.00 | 96 | 1017.3 |
| 20260906110547 | 11 | 78 | 6.4 | 16.1 | 0.00 | 0.00 | 0.00 | 96 | 1017.3 |
| 20260906110157 | 11 | 125 | 6.4 | 17.7 | 0.00 | 0.00 | 0.00 | 96 | 1017.3 |
| 20260906105523 | 11 | 146 | 8.0 | 17.7 | 0.00 | 0.00 | 0.00 | 96 | 1017.3 |
| 20260906105025 | 11 | 141 | 3.2 | 12.9 | 0.00 | 0.00 | 0.00 | 96 | 1017.2 |
| 20260906104630 | 11 | 117 | 3.2 | 17.7 | 0.00 | 0.00 | 0.00 | 95 | 1017.2 |
| 20260906104027 | 11 | 74 | 6.4 | 17.7 | 0.00 | 0.00 | 0.00 | 95 | 1017.0 |
| 20260906103548 | 11 | 46 | 4.8 | 17.7 | 0.00 | 0.00 | 0.00 | 95 | 1017.0 |
| 20260906103133 | 11 | 102 | 4.8 | 17.7 | 0.00 | 0.00 | 0.00 | 95 | 1017.0 |
| 20260906102547 | 12 | 336 | 6.4 | 17.7 | 0.00 | 0.00 | 0.00 | 94 | 1017.0 |
| 20260906102035 | 12 | 137 | 4.8 | 17.7 | 0.00 | 0.00 | 0.00 | 95 | 1016.9 |
| 20260906101618 | 12 | 90 | 3.2 | 12.9 | 0.00 | 0.00 | 0.00 | 95 | 1017.0 |
| 20260906101027 | 12 | 78 | 4.8 | 14.5 | 0.00 | 0.00 | 0.00 | 95 | 1017.0 |
| 20260906100544 | 12 | 175 | 4.8 | 16.1 | 0.00 | 0.00 | 0.00 | 95 | 1016.9 |
| 20260906100140 | 12 | 131 | 4.8 | 19.3 | 0.00 | 0.00 | 0.00 | 95 | 1016.8 |
| 20260906095529 | 12 | 113 | 6.4 | 19.3 | 0.00 | 0.00 | 0.00 | 95 | 1016.9 |
| 20260906095035 | 12 | 99 | 6.4 | 17.7 | 0.00 | 0.00 | 0.00 | 95 | 1016.8 |
| 20260906094616 | 12 | 97 | 6.4 | 17.7 | 0.00 | 0.00 | 0.00 | 95 | 1016.9 |
| 20260906094040 | 12 | 100 | 8.0 | 14.5 | 0.00 | 0.00 | 0.00 | 95 | 1017.0 |
| 20260906093523 | 12 | 96 | 4.8 | 14.5 | 0.00 | 0.00 | 0.00 | 94 | 1017.1 |
| 20260906093134 | 12 | 92 | 4.8 | 14.5 | 0.00 | 0.00 | 0.00 | 94 | 1017.0 |
| 20260906092542 | 12 | 109 | 3.2 | 6.4 | 0.00 | 0.00 | 0.00 | 93 | 1016.9 |
| 20260906092048 | 12 | 119 | 1.6 | 14.5 | 0.00 | 0.00 | 0.00 | 92 | 1016.9 |
| 20260906091613 | 12 | 65 | 6.4 | 14.5 | 0.00 | 0.00 | 0.00 | 93 | 1016.8 |
| 20260906091041 | 12 | 102 | 4.8 | 12.9 | 0.00 | 0.00 | 0.00 | 92 | 1016.7 |
| 20260906090545 | 12 | 75 | 6.4 | 16.1 | 0.00 | 0.00 | 0.00 | 92 | 1016.7 |
| 20260906090120 | 12 | 84 | 6.4 | 14.5 | 0.00 | 0.00 | 0.00 | 92 | 1016.7 |
| 20260906085537 | 12 | 140 | 8.0 | 17.7 | 0.00 | 0.00 | 0.00 | 92 | 1016.7 |
| 20260906085030 | 12 | 94 | 8.0 | 17.7 | 0.00 | 0.00 | 0.00 | 91 | 1016.7 |
| 20260906084620 | 12 | 109 | 8.0 | 14.5 | 0.00 | 0.00 | 0.00 | 91 | 1016.6 |
| 20260906084046 | 12 | 103 | 4.8 | 14.5 | 0.00 | 0.00 | 0.00 | 90 | 1016.7 |
| 20260906083536 | 12 | 124 | 3.2 | 12.9 | 0.00 | 0.00 | 0.00 | 90 | 1016.6 |
| 20260906083128 | 12 | 71 | 1.6 | 11.3 | 0.00 | 0.00 | 0.00 | 89 | 1016.6 |
| 20260906082529 | 12 | 67 | 1.6 | 11.3 | 0.00 | 0.00 | 0.00 | 89 | 1016.5 |
| 20260906082036 | 12 | 103 | 1.6 | 9.7 | 0.00 | 0.00 | 0.00 | 89 | 1016.4 |
| 20260906081620 | 12 | 82 | 3.2 | 9.7 | 0.00 | 0.00 | 0.00 | 88 | 1016.5 |
| 20260906081040 | 12 | 132 | 4.8 | 11.3 | 0.00 | 0.00 | 0.00 | 86 | 1016.4 |
| 20260906080532 | 12 | 121 | 3.2 | 11.3 | 0.00 | 0.00 | 0.00 | 85 | 1016.5 |
| 20260906080137 | 12 | 131 | 1.6 | 9.7 | 0.00 | 0.00 | 0.00 | 86 | 1016.5 |
| 20260906075527 | 12 | 144 | 4.8 | 9.7 | 0.00 | 0.00 | 0.00 | 86 | 1016.5 |
| 20260906075038 | 13 | 111 | 3.2 | 4.8 | 0.00 | 0.00 | 0.00 | 84 | 1016.6 |
| 20260906074657 | 13 | 134 | 0.0 | 4.8 | 0.00 | 0.00 | 0.00 | 82 | 1016.6 |
| 20260906074043 | 13 | 134 | 1.6 | 4.8 | 0.00 | 0.00 | 0.00 | 82 | 1016.5 |
| 20260906073525 | 13 | 155 | 1.6 | 4.8 | 0.00 | 0.00 | 0.00 | 82 | 1016.5 |
| 20260906073132 | 13 | 109 | 1.6 | 9.7 | 0.00 | 0.00 | 0.00 | 83 | 1016.5 |
| 20260906072529 | 12 | 142 | 4.8 | 9.7 | 0.00 | 0.00 | 0.00 | 85 | 1016.5 |
| 20260906072024 | 12 | 138 | 3.2 | 4.8 | 0.00 | 0.00 | 0.00 | 84 | 1016.4 |
| 20260906071607 | 12 | 159 | 1.6 | 3.2 | 0.00 | 0.00 | 0.00 | 84 | 1016.5 |
| 20260906071024 | 12 | 159 | 0.0 | 3.2 | 0.00 | 0.00 | 0.00 | 84 | 1016.4 |
| 20260906070535 | 12 | 159 | 0.0 | 3.2 | 0.00 | 0.00 | 0.00 | 84 | 1016.4 |
| 20260906070149 | 12 | 159 | 0.0 | 3.2 | 0.00 | 0.00 | 0.00 | 85 | 1016.4 |
| 20260906065524 | 12 | 159 | 0.0 | 3.2 | 0.00 | 0.00 | 0.00 | 86 | 1016.4 |
| 20260906065029 | 12 | 159 | 1.6 | 3.2 | 0.00 | 0.00 | 0.00 | 86 | 1016.4 |
| 20260906064634 | 12 | 159 | 0.0 | 3.2 | 0.00 | 0.00 | 0.00 | 87 | 1016.3 |
| 20260906064028 | 12 | 159 | 1.6 | 4.8 | 0.00 | 0.00 | 0.00 | 89 | 1016.4 |
| 20260906063524 | 12 | 163 | 3.2 | 4.8 | 0.00 | 0.00 | 0.00 | 89 | 1016.4 |
| 20260906063043 | 12 | 236 | 0.0 | 3.2 | 0.00 | 0.00 | 0.00 | 88 | 1016.4 |
| 20260906062528 | 12 | 236 | 0.0 | 1.6 | 0.00 | 0.00 | 0.00 | 87 | 1016.4 |
| 20260906062020 | 12 | 236 | 0.0 | 1.6 | 0.00 | 0.00 | 0.00 | 87 | 1016.4 |
| 20260906061628 | 12 | 236 | 0.0 | 1.6 | 0.00 | 0.00 | 0.00 | 88 | 1016.3 |
| 20260906061042 | 12 | 236 | 0.0 | 3.2 | 0.00 | 0.00 | 0.00 | 87 | 1016.3 |
| 20260906060528 | 12 | 236 | 1.6 | 3.2 | 0.00 | 0.00 | 0.00 | 85 | 1016.3 |
| 20260906060135 | 12 | 236 | 0.0 | 3.2 | 0.00 | 0.00 | 0.00 | 85 | 1016.2 |
| 20260906055543 | 12 | 236 | 1.6 | 3.2 | 0.00 | 0.00 | 0.00 | 85 | 1016.2 |
| 20260906055027 | 12 | 236 | 0.0 | 1.6 | 0.00 | 0.00 | 0.00 | 85 | 1016.1 |
| 20260906054622 | 12 | 236 | 0.0 | 0.0 | 0.00 | 0.00 | 0.00 | 85 | 1016.1 |
| 20260906054040 | 12 | 236 | 0.0 | 1.6 | 0.00 | 0.00 | 0.00 | 84 | 1016.1 |
| 20260906053524 | 12 | 236 | 0.0 | 3.2 | 0.00 | 0.00 | 0.00 | 85 | 1016.1 |
| 20260906053057 | 12 | 192 | 1.6 | 3.2 | 0.00 | 0.00 | 0.00 | 86 | 1016.0 |
| 20260906052530 | 12 | 192 | 0.0 | 3.2 | 0.00 | 0.00 | 0.00 | 86 | 1016.0 |
| 20260906052116 | 12 | 184 | 1.6 | 3.2 | 0.00 | 0.00 | 0.00 | 85 | 1016.0 |
| 20260906051639 | 12 | 184 | 0.0 | 1.6 | 0.00 | 0.00 | 0.00 | 85 | 1016.0 |
| 20260906051031 | 12 | 184 | 0.0 | 3.2 | 0.00 | 0.00 | 0.00 | 85 | 1015.9 |
| 20260906050525 | 13 | 184 | 0.0 | 3.2 | 0.00 | 0.00 | 0.00 | 85 | 1015.8 |
| 20260906050108 | 13 | 184 | 1.6 | 3.2 | 0.00 | 0.00 | 0.00 | 86 | 1015.9 |
| 20260906045525 | 13 | 171 | 0.0 | 3.2 | 0.00 | 0.00 | 0.00 | 85 | 1015.9 |
| 20260906045023 | 13 | 171 | 1.6 | 4.8 | 0.00 | 0.00 | 0.00 | 84 | 1015.8 |
| 20260906044620 | 13 | 146 | 1.6 | 4.8 | 0.00 | 0.00 | 0.00 | 85 | 1015.8 |
| 20260906044026 | 13 | 175 | 0.0 | 3.2 | 0.00 | 0.00 | 0.00 | 84 | 1015.8 |
| 20260906043523 | 13 | 176 | 0.0 | 3.2 | 0.00 | 0.00 | 0.00 | 83 | 1015.8 |
| 20260906043147 | 13 | 175 | 0.0 | 3.2 | 0.00 | 0.00 | 0.00 | 83 | 1015.9 |
| 20260906042520 | 13 | 171 | 0.0 | 3.2 | 0.00 | 0.00 | 0.00 | 83 | 1015.9 |
| 20260906042040 | 13 | 155 | 1.6 | 3.2 | 0.00 | 0.00 | 0.00 | 83 | 1015.9 |
| 20260906041627 | 13 | 225 | 1.6 | 3.2 | 0.00 | 0.00 | 0.00 | 82 | 1016.0 |
| 20260906041036 | 13 | 225 | 0.0 | 3.2 | 0.00 | 0.00 | 0.00 | 81 | 1016.1 |
| 20260906040534 | 14 | 225 | 0.0 | 3.2 | 0.00 | 0.00 | 0.00 | 82 | 1016.2 |
| 20260906040107 | 14 | 225 | 1.6 | 3.2 | 0.00 | 0.00 | 0.00 | 81 | 1016.2 |
| 20260906035537 | 14 | 225 | 0.0 | 3.2 | 0.00 | 0.00 | 0.00 | 81 | 1016.1 |
| 20260906035032 | 14 | 225 | 0.0 | 3.2 | 0.00 | 0.00 | 0.00 | 80 | 1016.0 |
| 20260906034642 | 14 | 225 | 0.0 | 3.2 | 0.00 | 0.00 | 0.00 | 80 | 1016.1 |
| 20260906034024 | 15 | 225 | 0.0 | 4.8 | 0.00 | 0.00 | 0.00 | 80 | 1016.2 |
| 20260906033539 | 15 | 225 | 1.6 | 4.8 | 0.00 | 0.00 | 0.00 | 80 | 1016.2 |
| 20260906033148 | 15 | 265 | 1.6 | 3.2 | 0.00 | 0.00 | 0.00 | 80 | 1016.2 |
| 20260906032525 | 15 | 177 | 0.0 | 3.2 | 0.00 | 0.00 | 0.00 | 79 | 1016.2 |
| 20260906032030 | 15 | 177 | 1.6 | 4.8 | 0.00 | 0.00 | 0.00 | 78 | 1016.3 |
| 20260906031621 | 15 | 173 | 3.2 | 4.8 | 0.00 | 0.00 | 0.00 | 78 | 1016.3 |
| 20260906031037 | 16 | 207 | 0.0 | 3.2 | 0.00 | 0.00 | 0.00 | 77 | 1016.2 |
| 20260906030616 | 16 | 238 | 1.6 | 3.2 | 0.00 | 0.00 | 0.00 | 77 | 1016.1 |
| 20260906030133 | 16 | 182 | 1.6 | 3.2 | 0.00 | 0.00 | 0.00 | 76 | 1016.0 |
| 20260906025548 | 16 | 156 | 0.0 | 4.8 | 0.00 | 0.00 | 0.00 | 75 | 1015.9 |
| 20260906025028 | 17 | 156 | 0.0 | 4.8 | 0.00 | 0.00 | 0.00 | 74 | 1016.0 |
| 20260906024637 | 17 | 164 | 1.6 | 4.8 | 0.00 | 0.00 | 0.00 | 73 | 1016.0 |
| 20260906024023 | 17 | 225 | 0.0 | 6.4 | 0.00 | 0.00 | 0.00 | 71 | 1016.0 |
| 20260906023523 | 18 | 225 | 3.2 | 6.4 | 0.00 | 0.00 | 0.00 | 69 | 1016.0 |
| 20260906023206 | 18 | 147 | 0.0 | 3.2 | 0.00 | 0.00 | 0.00 | 67 | 1015.9 |
| 20260906022526 | 19 | 147 | 0.0 | 3.2 | 0.00 | 0.00 | 0.00 | 66 | 1015.9 |
| 20260906022118 | 19 | 134 | 0.0 | 3.2 | 0.00 | 0.00 | 0.00 | 63 | 1016.0 |
| 20260906021635 | 20 | 161 | 0.0 | 1.6 | 0.00 | 0.00 | 0.00 | 62 | 1016.2 |
| 20260906021055 | 20 | 237 | 0.0 | 3.2 | 0.00 | 0.00 | 0.00 | 61 | 1016.0 |
| 20260906020532 | 21 | 183 | 0.0 | 3.2 | 0.00 | 0.00 | 0.00 | 57 | 1016.1 |
| 20260906020058 | 21 | 146 | 1.6 | 3.2 | 0.00 | 0.00 | 0.00 | 55 | 1016.0 |
| 20260906015526 | 22 | 146 | 0.0 | 4.8 | 0.00 | 0.00 | 0.00 | 55 | 1016.2 |
| 20260906015050 | 22 | 146 | 0.0 | 4.8 | 0.00 | 0.00 | 0.00 | 53 | 1016.2 |
| 20260906014703 | 23 | 237 | 1.6 | 4.8 | 0.00 | 0.00 | 0.00 | 52 | 1016.2 |
| 20260906014059 | 23 | 33 | 0.0 | 4.8 | 0.00 | 0.00 | 0.00 | 50 | 1016.3 |
| 20260906013548 | 23 | 327 | 0.0 | 4.8 | 0.00 | 0.00 | 0.00 | 48 | 1016.3 |
| 20260906013200 | 23 | 258 | 1.6 | 8.0 | 0.00 | 0.00 | 0.00 | 47 | 1016.3 |
| 20260906012550 | 23 | 304 | 3.2 | 11.3 | 0.00 | 0.00 | 0.00 | 46 | 1016.4 |
| 20260906012027 | 23 | 273 | 3.2 | 11.3 | 0.00 | 0.00 | 0.00 | 44 | 1016.5 |
| 20260906011718 | 23 | 283 | 3.2 | 9.7 | 0.00 | 0.00 | 0.00 | 47 | 1016.7 |
| 20260906011031 | 23 | 284 | 1.6 | 9.7 | 0.00 | 0.00 | 0.00 | 50 | 1016.5 |
| 20260906010547 | 23 | 279 | 4.8 | 11.3 | 0.00 | 0.00 | 0.00 | 49 | 1016.6 |
| 20260906010150 | 23 | 269 | 3.2 | 11.3 | 0.00 | 0.00 | 0.00 | 49 | 1016.6 |
| 20260906005600 | 23 | 259 | 3.2 | 6.4 | 0.00 | 0.00 | 0.00 | 49 | 1016.6 |
| 20260906005049 | 23 | 110 | 1.6 | 3.2 | 0.00 | 0.00 | 0.00 | 51 | 1016.6 |
| 20260906004627 | 23 | 110 | 0.0 | 1.6 | 0.00 | 0.00 | 0.00 | 54 | 1016.6 |
| 20260906004120 | 23 | 110 | 0.0 | 1.6 | 0.00 | 0.00 | 0.00 | 56 | 1016.7 |
| 20260906003529 | 23 | 110 | 0.0 | 1.6 | 0.00 | 0.00 | 0.00 | 55 | 1016.6 |
| 20260906003146 | 23 | 110 | 0.0 | 3.2 | 0.00 | 0.00 | 0.00 | 50 | 1016.6 |
| 20260906002620 | 23 | 110 | 0.0 | 3.2 | 0.00 | 0.00 | 0.00 | 52 | 1016.6 |
| 20260906002117 | 23 | 110 | 0.0 | 3.2 | 0.00 | 0.00 | 0.00 | 54 | 1016.7 |
| 20260906001600 | 22 | 110 | 0.0 | 3.2 | 0.00 | 0.00 | 0.00 | 51 | 1016.7 |
| 20260906001101 | 22 | 155 | 0.0 | 3.2 | 0.00 | 0.00 | 0.00 | 52 | 1016.7 |
| 20260906000616 | 22 | 155 | 1.6 | 4.8 | 0.00 | 0.00 | 0.00 | 54 | 1016.7 |
| 20260906000133 | 22 | 152 | 1.6 | 4.8 | 0.00 | 0.00 | 0.00 | 54 | 1016.9 |
| 20260905235600 | 22 | 109 | 1.6 | 3.2 | 0.00 | 0.00 | 0.00 | 54 | 1017.0 |
| 20260905235051 | 23 | 115 | 1.6 | 3.2 | 0.00 | 0.00 | 0.00 | 52 | 1017.0 |
| 20260905234645 | 23 | 107 | 1.6 | 3.2 | 0.00 | 0.00 | 0.00 | 51 | 1016.9 |
| 20260905234050 | 23 | 58 | 1.6 | 3.2 | 0.00 | 0.00 | 0.00 | 51 | 1017.1 |
| 20260905233546 | 23 | 90 | 1.6 | 3.2 | 0.00 | 0.00 | 0.00 | 49 | 1017.1 |
| 20260905233121 | 23 | 5 | 0.0 | 3.2 | 0.00 | 0.00 | 0.00 | 50 | 1017.0 |
| 20260905232539 | 23 | 360 | 0.0 | 3.2 | 0.00 | 0.00 | 0.00 | 51 | 1017.0 |
| 20260905232117 | 23 | 96 | 0.0 | 3.2 | 0.00 | 0.00 | 0.00 | 50 | 1017.1 |